Weather History for Fosston, MN

Change the Weather History Date:

Friday, December 20, 2013

  Actual Average Record
Temperature  
Mean Temperature -7 °F -  
Max Temperature 6 °F 17 °F 59 °F (2003)
Min Temperature -20 °F 0 °F -34 °F (1963)
Degree Days  
Heating Degree Days 72    
Moisture  
Dew Point -9 °F    
Average Humidity 82    
Maximum Humidity 92    
Minimum Humidity 70    
Precipitation  
Precipitation 0.00 in - - ()
Sea Level Pressure  
Sea Level Pressure 29.95 in    
Wind  
Wind Speed 3 mph (South)    
Max Wind Speed 10 mph    
Max Gust Speed -    
Visibility 9 miles    
Events Snow    
Averages and records for this station are not official NWS values.
T = Trace of Precipitation, MM = Missing Value Source: NWS Daily Summary

Daily Weather History Graph

Daily Weather History Graph

Search for Another Location

Airport:

Trip Planner

Search our weather history database for the weather conditions in past years. The results will help you decide how hot, cold, wet, or windy it might be!

Date:

Astronomy

Dec. 20, 2013 Rise Set
Actual Time 8:08 AM CST 4:33 PM CST
Civil Twilight 7:31 AM CST 5:09 PM CST
Nautical Twilight 6:52 AM CST 5:49 PM CST
Astronomical Twilight 6:15 AM CST 6:26 PM CST
Moon 8:08 PM CST (12/20) 9:51 AM CST (12/20)
Length of Visible Light 9h 37m
Length of Day
8h 25m
Waning Gibbous, 90% of the Moon is Illuminated
Dec 20
Waning Gibbous
Dec 25
Last Quarter
Jan 1
New
Jan 7
First Quarter
Jan 15
Full

Hourly Weather History & Observations

Time (CST) Temp. Windchill Dew Point Humidity Pressure Visibility Wind Dir Wind Speed Gust Speed Precip Events Conditions
12:15 AM -5.8 °F - -9.4 °F 84% 30.13 in 4.0 mi Calm Calm - N/A Snow Light Snow
12:35 AM -7.6 °F - -11.2 °F 84% 30.13 in 10.0 mi Calm Calm - N/A   Clear
12:55 AM -9.4 °F -20.9 °F -14.8 °F 77% 30.13 in 10.0 mi NNW 4.6 mph - N/A Snow Light Snow
1:15 AM -9.4 °F -18.6 °F -13.0 °F 84% 30.13 in 10.0 mi NNW 3.5 mph - N/A   Clear
1:35 AM -9.4 °F - -13.0 °F 84% 30.12 in 10.0 mi Calm Calm - N/A   Clear
1:55 AM -9.4 °F - -14.8 °F 77% 30.11 in 10.0 mi Calm Calm - N/A   Clear
2:15 AM -13.0 °F - -16.6 °F 84% 30.10 in 10.0 mi Calm Calm - N/A   Clear
2:35 AM -11.2 °F - -16.6 °F 77% 30.09 in 10.0 mi Calm Calm - N/A   Clear
2:56 AM -14.8 °F - -20.2 °F 77% 30.08 in 10.0 mi Calm Calm - N/A   Clear
3:15 AM -16.6 °F - -20.2 °F 84% 30.08 in 10.0 mi Calm Calm - N/A   Clear
3:35 AM -16.6 °F - -20.2 °F 84% 30.08 in 10.0 mi Calm Calm - N/A   Clear
3:56 AM -16.6 °F - -20.2 °F 84% 30.08 in 10.0 mi Calm Calm - N/A   Clear
4:15 AM -16.6 °F - -22.0 °F 76% 30.07 in 10.0 mi Calm Calm - N/A   Clear
4:35 AM -18.4 °F - -23.8 °F 76% 30.06 in 10.0 mi Calm Calm - N/A   Clear
4:55 AM -18.4 °F - -23.8 °F 76% 30.06 in 10.0 mi Calm Calm - N/A   Clear
5:15 AM -18.4 °F - -23.8 °F 76% 30.05 in 10.0 mi Calm Calm - N/A   Clear
5:35 AM -18.4 °F - -25.6 °F 70% 30.05 in 10.0 mi Calm Calm - N/A   Clear
5:55 AM -18.4 °F - -23.8 °F 76% 30.04 in 10.0 mi Calm Calm - N/A   Clear
6:15 AM -20.2 °F - -25.6 °F 76% 30.04 in 10.0 mi Calm Calm - N/A   Clear
6:35 AM -18.4 °F -33.4 °F -23.8 °F 76% 30.03 in 7.0 mi SSE 5.8 mph - N/A   Clear
6:55 AM -14.8 °F -24.8 °F -20.2 °F 77% 30.02 in 10.0 mi SSE 3.5 mph - N/A   Clear
7:15 AM -14.8 °F -29.1 °F -18.4 °F 84% 30.01 in 10.0 mi SSE 5.8 mph - N/A   Clear
7:35 AM -14.8 °F -27.2 °F -18.4 °F 84% 30.00 in 10.0 mi SSE 4.6 mph - N/A   Clear
7:55 AM -14.8 °F -24.8 °F -16.6 °F 92% 29.99 in 7.0 mi SSE 3.5 mph - N/A   Clear
8:15 AM -11.2 °F -26.4 °F -14.8 °F 84% 29.99 in 5.0 mi SSE 6.9 mph - N/A   Clear
8:35 AM -11.2 °F -24.8 °F -16.6 °F 77% 29.99 in 10.0 mi SSE 5.8 mph - N/A   Clear
8:55 AM -11.2 °F -24.8 °F -16.6 °F 77% 29.99 in 10.0 mi South 5.8 mph - N/A   Scattered Clouds
9:15 AM -13.0 °F -27.0 °F -16.6 °F 84% 29.99 in 10.0 mi South 5.8 mph - N/A   Mostly Cloudy
9:35 AM -9.4 °F -20.9 °F -13.0 °F 84% 29.99 in 10.0 mi South 4.6 mph - N/A   Overcast
9:55 AM -5.8 °F -18.4 °F -9.4 °F 84% 29.99 in 7.0 mi South 5.8 mph - N/A   Overcast
10:15 AM -5.8 °F -18.4 °F -9.4 °F 84% 30.00 in 10.0 mi South 5.8 mph - N/A Snow Light Snow
10:35 AM -2.2 °F -10.4 °F -5.8 °F 85% 29.99 in 10.0 mi South 3.5 mph - N/A Snow Light Snow
10:55 AM -0.4 °F -12.0 °F -2.2 °F 92% 29.98 in 10.0 mi South 5.8 mph - N/A Snow Light Snow
11:15 AM 1.4 °F -13.5 °F -2.2 °F 85% 29.98 in 10.0 mi SSW 9.2 mph - N/A Snow Light Snow
11:35 AM 3.2 °F -11.3 °F -2.2 °F 78% 29.97 in 10.0 mi South 9.2 mph - N/A Snow Light Snow
11:55 AM 3.2 °F -12.2 °F -2.2 °F 78% 29.95 in 10.0 mi South 10.4 mph - N/A Snow Light Snow
12:15 PM 3.2 °F -11.3 °F -2.2 °F 78% 29.94 in 10.0 mi South 9.2 mph - N/A Snow Light Snow
12:35 PM 5.0 °F -10.0 °F -0.4 °F 78% 29.93 in 10.0 mi South 10.4 mph - N/A Snow Light Snow
12:55 PM 6.8 °F -6.9 °F -0.4 °F 72% 29.92 in 10.0 mi SSW 9.2 mph - N/A Snow Light Snow
1:15 PM 6.8 °F -5.9 °F -0.4 °F 72% 29.92 in 7.0 mi SSW 8.1 mph - N/A Snow Light Snow
1:35 PM 6.8 °F -5.9 °F -0.4 °F 72% 29.91 in 7.0 mi SSW 8.1 mph - N/A Snow Light Snow
1:55 PM 6.8 °F -5.9 °F 1.4 °F 79% 29.91 in 4.0 mi SSW 8.1 mph - N/A Snow Light Snow
2:15 PM 6.8 °F -4.8 °F 1.4 °F 79% 29.91 in 5.0 mi SSW 6.9 mph - N/A Snow Light Snow
2:35 PM 6.8 °F -5.9 °F -0.4 °F 72% 29.90 in 4.0 mi SSW 8.1 mph - N/A Snow Light Snow
2:55 PM 6.8 °F -4.8 °F -0.4 °F 72% 29.89 in 7.0 mi SSW 6.9 mph - N/A Snow Light Snow
3:16 PM 6.8 °F -3.5 °F 1.4 °F 79% 29.88 in 5.0 mi SSW 5.8 mph - N/A Snow Light Snow
3:35 PM 6.8 °F -4.8 °F 1.4 °F 79% 29.88 in 5.0 mi SSW 6.9 mph - N/A Snow Light Snow
3:55 PM 5.0 °F -6.9 °F 1.4 °F 85% 29.87 in 5.0 mi SSW 6.9 mph - N/A Snow Light Snow
4:16 PM 5.0 °F -5.6 °F 1.4 °F 85% 29.87 in 5.0 mi SSW 5.8 mph - N/A Snow Light Snow
4:35 PM 3.2 °F -7.8 °F -0.4 °F 85% 29.86 in 7.0 mi SSW 5.8 mph - N/A Snow Light Snow
4:55 PM 1.4 °F -9.9 °F -0.4 °F 92% 29.86 in 10.0 mi SSW 5.8 mph - N/A Snow Light Snow
5:16 PM 1.4 °F -9.9 °F -2.2 °F 85% 29.85 in 10.0 mi South 5.8 mph - N/A   Clear
5:35 PM -0.4 °F -15.7 °F -4.0 °F 85% 29.85 in 10.0 mi South 9.2 mph - N/A   Clear
5:55 PM -0.4 °F -14.7 °F -4.0 °F 85% 29.84 in 10.0 mi South 8.1 mph - N/A   Clear
6:16 PM -2.2 °F -16.8 °F -5.8 °F 85% 29.84 in 10.0 mi South 8.1 mph - N/A   Clear
6:35 PM -0.4 °F -12.0 °F -4.0 °F 85% 29.84 in 10.0 mi South 5.8 mph - N/A   Clear
6:55 PM -0.4 °F -14.7 °F -4.0 °F 85% 29.82 in 10.0 mi SSE 8.1 mph - N/A   Clear
7:15 PM -0.4 °F -13.4 °F -4.0 °F 85% 29.82 in 10.0 mi SSE 6.9 mph - N/A   Clear
7:35 PM -0.4 °F -14.7 °F -4.0 °F 85% 29.82 in 10.0 mi SSE 8.1 mph - N/A   Clear
7:55 PM -0.4 °F -13.4 °F -4.0 °F 85% 29.82 in 10.0 mi SSE 6.9 mph - N/A   Clear
8:15 PM -0.4 °F -10.4 °F -4.0 °F 85% 29.82 in 10.0 mi SSE 4.6 mph - N/A   Clear
8:35 PM -0.4 °F -8.3 °F -2.2 °F 92% 29.82 in 10.0 mi South 3.5 mph - N/A   Clear
8:56 PM -0.4 °F -8.3 °F -4.0 °F 85% 29.82 in 5.0 mi South 3.5 mph - N/A   Clear
9:15 PM -0.4 °F -10.4 °F -4.0 °F 85% 29.82 in 10.0 mi South 4.6 mph - N/A   Clear
9:35 PM -0.4 °F -8.3 °F -2.2 °F 92% 29.82 in 10.0 mi SSW 3.5 mph - N/A   Clear
9:56 PM -0.4 °F - -2.2 °F 92% 29.82 in 10.0 mi Calm Calm - N/A   Scattered Clouds
10:15 PM 1.4 °F -8.3 °F -2.2 °F 85% 29.82 in 4.0 mi SSW 4.6 mph - N/A Snow Light Snow
10:35 PM 1.4 °F -8.3 °F -2.2 °F 85% 29.81 in 5.0 mi South 4.6 mph - N/A Snow Light Snow
10:56 PM 1.4 °F -6.2 °F -2.2 °F 85% 29.82 in 10.0 mi SSW 3.5 mph - N/A Snow Light Snow
11:15 PM -0.4 °F -8.3 °F -2.2 °F 92% 29.82 in 10.0 mi South 3.5 mph - N/A   Clear
11:35 PM -0.4 °F -8.3 °F -2.2 °F 92% 29.82 in 10.0 mi South 3.5 mph - N/A   Clear
11:55 PM -0.4 °F - -4.0 °F 85% 29.83 in 10.0 mi Calm Calm - N/A   Scattered Clouds